Location: Marsån
(66.4167°N, 22.2833°E)
Time: 12:00:47
(UTC+00:00)

Cosmos 1603 - Pass Details

Date: 24 February 2024
Orbit: 831 x 858 km, 71.0° (Epoch: 15 April)

Event Time Altitude Azimuth Distance (km) Brightness Sun altitude
Rises 21:05:06 0° 300° (WNW) 3,387 7.7 -30.5°
Reaches altitude 10° 21:07:33 10° 303° (WNW) 2,452 6.8 -30.7°
Enters shadow 21:12:23 63° 331° (NNW) 929 4.0 -30.9°
